Temperature
18 18 18 18 18 18 18 18 18 18 18 18 18 18 18 18 18 18 18 18 18 18 17 17 17 17 17 17 17 16 16 16 16 16 16 16 16 16 16 16 16 16 16
18 18 18 18 18 18 18 18 18 18 18 18 18 18 18 18 18 18 18 18 18 18 17 17 17 17 17 17 17 17 16 16 16 16 16 16 16 16 16 16 16 16 15
18 18 18 18 18 18 18 18 18 18 18 18 18 18 18 18 18 17 17 18 18 17 17 17 17 17 17 17 17 17 17 17 16 16 16 16 16 16 16 16 16 16 16
18 18 18 18 18 18 18 18 18 18 18 18 18 18 18 18 18 18 17 17 17 17 17 17 17 17 17 17 17 17 17 17 17 16 16 16 16 16 16 16 16 16 16
18 18 18 18 18 18 18 18 18 18 18 18 18 18 18 18 18 18 18 18 17 17 17 17 17 17 17 17 17 17 17 17 17 17 16 16 16 16 16 16 16 16 16
18 18 18 18 18 18 18 18 18 18 18 18 18 18 18 18 18 18 18 18 18 18 18 17 17 17 17 17 17 17 17 17 17 17 16 16 16 16 16 16 16 16 16
18 18 18 18 18 18 18 18 18 18 18 18 18 18 18 18 18 18 18 18 18 18 18 17 17 17 17 17 17 17 17 17 17 17 17 16 16 16 16 16 16 16 16
18 18 18 18 18 18 18 18 18 18 18 18 18 18 18 18 19 19 18 18 18 18 18 18 18 17 17 17 17 17 17 17 17 17 17 17 16 16 16 16 16 16 16
18 18 18 18 18 18 18 18 18 18 18 18 18 18 18 18 19 19 19 19 19 18 18 18 18 18 17 17 17 17 17 17 17 17 17 16 16 16 16 16 16 16 16
18 18 18 18 18 18 18 18 18 18 18 18 18 18 18 18 18 18 19 19 19 18 18 18 18 18 18 17 17 17 17 17 17 17 17 16 16 16 16 16 16 16 16
18 18 18 18 18 18 18 18 18 18 18 18 18 18 18 18 18 18 18 18 18 18 18 18 18 18 17 17 17 17 17 17 17 17 17 17 16 16 16 16 16 16 16
18 18 18 18 18 18 18 18 18 18 18 18 18 18 18 18 18 18 18 18 18 18 18 18 18 18 18 18 17 17 17 17 17 17 17 17 16 16 16 16 16 16 15
18 18 18 18 18 18 18 18 18 18 18 18 18 18 18 18 18 18 18 18 18 18 18 18 18 18 18 17 17 17 17 17 17 17 16 16 16 16 16 16 15 15 15
18 18 18 18 18 18 18 18 18 17 17 17 17 17 17 17 18 18 18 18 17 18 18 18 18 17 17 17 17 17 17 17 16 16 16 16 16 16 16 15 15 15 15
18 18 18 18 18 18 18 18 17 17 17 17 17 17 17 17 17 17 17 17 17 17 17 17 17 17 17 17 17 17 16 16 16 16 16 16 16 15 15 15 15 15 15
18 18 18 18 17 17 17 17 17 17 17 17 17 17 17 17 17 17 17 17 17 17 16 17 17 17 17 16 16 16 16 16 16 16 16 15 15 15 15 15 15 15 14
18 17 17 17 17 17 17 17 17 16 16 16 16 16 16 16 16 16 16 16 16 16 16 16 16 16 16 16 16 16 15 15 15 15 15 15 15 15 15 15 14 14 14
17 17 17 17 17 16 16 16 16 16 16 16 16 16 16 16 16 16 16 16 16 16 16 16 16 16 15 15 15 15 15 15 15 15 15 15 15 14 14 14 14 14 13
17 16 16 16 16 16 16 16 16 16 16 16 15 15 15 16 16 16 16 16 15 15 15 15 15 15 15 15 14 14 14 14 14 14 14 14 14 14 13 13 13 13 13
16 16 16 16 16 16 16 15 15 15 15 15 15 15 15 15 15 15 15 15 15 15 15 15 15 14 14 14 14 14 13 13 13 13 13 13 13 13 13 13 13 13 12
16 16 16 15 15 15 15 15 15 14 14 14 14 14 14 14 14 14 14 14 14 14 14 14 14 14 13 13 13 13 13 13 13 12 12 12 12 12 12 12 12 12 12
15 15 15 15 15 15 14 14 14 14 14 14 14 14 14 14 14 14 14 14 14 14 14 13 13 13 13 13 13 13 13 12 12 12 12 12 11 11 11 11 11 11 11
15 15 15 15 14 14 14 14 14 14 14 13 13 13 13 13 13 13 13 13 13 13 13 13 13 12 12 12 12 12 12 12 12 11 11 11 11 11 11 11 11 10 10
14 14 14 14 14 14 14 14 13 13 13 13 13 13 13 13 13 13 13 13 13 12 12 12 12 12 12 12 12 12 11 11 11 11 11 11 10 10 10 10 10 10 10
14 14 14 13 13 13 13 13 13 13 13 12 12 12 12 12 12 12 12 12 12 12 11 11 11 11 11 11 11 11 11 11 10 10 10 10 10 10 10 9 9 9 9
13 13 13 13 13 12 12 12 12 12 12 12 12 12 12 12 12 11 11 11 11 11 11 11 11 11 10 10 10 10 10 10 10 10 10 10 9 9 9 9 9 9 8
Wind_Speed
3 4 2 3 4 6 6 3 2 3 2 2 2 2 2 5 9 13 13 15 14 13 11 10 10 9 9 9 8 9 9 9 9 9 9 9 8 8 8 7 7 7 7
4 3 2 1 2 4 4 3 3 2 2 2 1 2 1 4 7 11 13 13 14 13 12 11 11 10 10 10 9 9 9 9 9 9 10 9 9 8 8 8 7 7 7
4 3 2 2 2 3 4 3 3 3 2 3 2 1 1 3 5 8 12 13 13 13 13 13 12 12 11 11 10 10 10 10 10 10 10 10 9 9 9 8 8 8 7
6 4 3 3 3 3 3 2 2 2 2 1 2 2 2 3 4 7 9 12 14 13 15 15 14 13 13 12 12 12 12 11 11 11 11 10 10 10 10 10 9 9 9
7 5 3 2 4 3 3 3 2 1 1 1 3 3 3 3 4 7 7 9 12 14 15 17 17 16 15 15 14 14 13 13 13 13 12 12 11 11 11 11 11 10 10
8 6 3 3 3 2 2 1 1 1 1 2 4 3 4 4 4 4 5 7 10 13 15 16 16 16 18 17 16 16 15 15 15 14 14 13 13 13 13 13 13 12 12
7 5 3 3 3 2 3 3 2 3 3 3 2 2 3 5 5 5 4 4 6 10 12 15 16 15 16 20 19 18 17 17 16 16 16 15 15 15 15 14 14 14 13
7 7 5 4 4 2 3 3 3 2 3 3 2 1 1 2 3 6 5 5 5 7 8 13 14 14 14 15 18 22 20 18 18 17 17 17 16 16 16 16 15 15 15
8 7 6 4 3 4 4 4 4 5 4 4 3 2 2 2 2 3 5 5 5 5 4 8 12 15 14 13 15 21 22 20 18 17 17 17 17 17 17 17 17 16 16
7 7 6 5 4 4 4 6 6 5 5 5 4 3 3 1 1 2 2 3 4 4 4 5 6 10 12 11 12 16 21 21 19 18 17 17 17 18 18 18 16 16 16
5 6 6 5 6 5 6 6 4 6 5 6 4 3 3 3 3 3 3 2 2 3 4 3 3 5 10 11 11 13 18 20 19 18 17 17 17 16 17 17 16 16 16
4 5 6 5 5 5 6 6 6 6 6 6 4 3 3 2 3 3 3 4 4 4 4 4 3 5 7 9 11 13 16 17 18 17 16 15 15 15 15 15 15 15 15
3 4 5 4 5 5 6 6 6 6 6 6 5 4 4 4 3 3 3 3 3 3 2 2 2 3 6 7 8 11 13 15 16 16 15 14 13 13 13 13 13 13 13
2 2 3 3 3 4 5 4 4 5 5 5 6 5 4 4 4 3 3 3 3 3 2 2 1 1 2 4 5 9 10 14 14 14 14 13 12 11 11 11 12 12 11
2 0 1 2 2 2 3 3 3 3 3 4 5 5 5 4 3 3 2 2 3 3 4 2 1 0 2 2 5 5 5 10 13 12 11 10 10 9 9 9 10 10 9
2 2 2 1 1 1 1 1 2 2 2 3 3 4 4 4 3 3 3 2 3 4 3 2 1 0 1 1 3 4 4 6 8 9 9 9 8 7 7 7 7 8 8
2 2 2 2 2 1 1 1 1 2 3 3 3 3 3 4 3 3 2 2 2 2 3 2 1 1 1 1 2 3 4 5 5 7 8 8 7 6 6 6 6 6 6
3 2 2 2 2 2 2 1 1 1 1 1 2 2 2 3 3 2 2 2 1 1 2 2 1 0 1 2 2 2 3 3 4 5 7 7 7 6 6 5 5 5 4
4 4 4 4 4 4 3 2 2 2 2 2 2 2 2 2 2 1 1 1 1 1 1 1 1 0 1 1 2 2 3 3 3 4 6 6 6 7 6 6 6 6 5
5 5 5 5 5 5 5 4 4 3 3 4 3 3 3 3 2 2 1 1 1 1 0 1 1 0 1 1 2 2 2 2 1 3 5 6 7 7 6 6 6 6 6
6 6 6 6 5 5 6 5 4 5 5 5 4 5 5 6 8 5 3 3 2 2 1 1 1 1 2 1 1 0 1 2 2 2 3 4 5 5 6 6 7 6 6
6 6 7 7 7 6 8 9 7 5 5 5 5 5 4 6 8 9 9 9 6 3 1 1 2 2 2 2 1 1 1 1 1 1 2 2 4 4 5 6 7 8 8
7 6 7 7 7 9 10 9 9 6 5 5 5 5 5 5 6 5 7 8 9 9 6 3 4 3 2 2 2 2 2 1 1 0 1 2 3 3 4 6 8 8 9
6 6 7 7 7 9 11 10 9 6 6 6 7 6 6 6 6 5 6 8 9 8 7 7 6 5 4 3 2 1 1 2 2 2 2 1 1 2 3 5 7 8 8
6 7 6 7 8 8 11 10 7 5 6 7 7 8 7 7 8 7 7 7 8 7 11 12 10 8 8 8 6 3 2 2 2 2 2 1 1 1 1 2 4 6 7
6 7 8 8 8 8 11 12 7 5 6 7 7 8 11 10 10 9 6 6 7 5 5 6 6 7 7 8 9 6 4 2 2 2 2 1 0 0 0 1 3 5 5
Wind_Direction
155 138 149 188 189 160 169 199 158 139 143 187 209 127 81 99 118 129 144 157 159 161 164 166 168 168 167 168 169 170 169 166 165 165 165 165 164 163 163 161 159 156 152
133 147 165 221 209 158 154 175 162 153 183 205 207 122 127 108 118 133 148 164 170 173 176 179 180 182 182 182 183 182 181 179 177 177 178 178 178 178 178 177 176 174 171
148 170 174 208 205 163 150 171 185 190 204 194 175 162 148 134 137 143 153 166 176 185 188 188 189 191 192 192 193 191 190 189 190 190 189 189 189 189 189 189 189 188 187
178 199 187 197 185 175 178 187 205 201 183 177 169 189 162 160 166 172 175 176 177 182 191 196 196 197 200 201 201 200 198 198 200 201 201 200 201 200 201 200 200 200 201
190 201 201 182 190 193 200 210 169 194 197 197 205 192 200 190 189 202 189 192 184 177 180 193 200 202 204 206 207 207 206 205 206 207 208 208 208 208 208 208 209 210 211
199 208 200 181 209 206 185 202 153 210 231 230 244 201 204 197 204 204 203 201 191 187 185 184 192 205 210 211 211 211 211 211 210 211 212 213 214 213 213 214 215 217 218
200 207 222 176 207 219 197 198 206 221 234 236 247 239 228 214 204 203 213 203 198 196 188 178 187 194 202 213 214 214 214 214 214 214 215 216 218 219 219 219 221 222 223
204 205 206 208 200 212 224 226 219 243 253 232 221 236 272 259 237 216 203 207 206 193 193 192 193 193 196 196 212 214 215 216 216 217 218 218 220 221 222 222 224 226 228
211 216 201 213 199 210 213 219 217 221 241 253 228 202 221 238 260 234 214 207 196 192 207 198 195 197 200 194 199 208 213 215 216 218 219 221 222 222 224 226 228 229 230
217 216 208 210 215 223 212 220 219 223 229 247 249 226 228 233 234 285 268 224 204 201 218 226 208 194 197 194 195 197 205 210 214 218 220 222 223 224 226 229 231 231 229
222 223 216 211 209 224 225 226 225 223 225 234 245 235 235 246 228 221 253 262 245 218 212 223 213 193 198 198 197 196 198 203 209 215 219 223 224 225 226 227 230 233 233
215 220 223 216 211 221 229 229 227 228 232 241 246 254 238 222 232 228 231 238 241 238 215 208 199 191 195 197 205 201 196 199 205 211 214 219 221 224 227 229 232 235 235
221 222 228 216 219 222 227 226 223 235 232 232 234 244 247 238 236 230 224 237 245 248 223 219 215 194 200 188 195 187 187 194 200 204 207 212 218 223 225 227 229 232 234
254 227 222 223 228 232 238 226 226 227 229 229 238 239 244 252 255 247 234 223 246 265 248 237 219 175 196 172 185 183 183 190 194 199 203 206 210 216 222 227 229 229 229
292 311 220 237 249 250 254 244 231 233 228 231 240 241 243 254 261 262 256 227 210 241 259 250 230 170 81 122 141 155 169 187 192 195 199 203 209 214 220 229 231 229 228
357 1 5 352 314 301 283 253 257 240 229 241 242 247 251 259 258 256 252 252 226 216 233 256 242 82 68 126 127 135 139 149 179 185 187 191 196 206 217 224 226 221 217
31 22 19 15 359 357 347 289 263 256 247 254 256 251 253 257 264 262 254 238 237 212 224 255 319 25 80 64 96 91 94 106 129 160 172 175 177 185 195 199 198 201 206
46 40 35 30 16 17 28 24 342 338 307 301 304 295 285 280 278 284 287 261 251 210 204 235 262 322 88 124 131 123 110 110 113 134 151 156 161 165 168 165 161 160 168
55 43 43 38 29 25 31 31 30 26 11 10 356 345 349 353 338 329 334 321 284 262 194 194 228 234 101 95 103 104 101 105 113 120 134 140 140 144 150 149 145 139 136
60 48 43 41 40 36 33 32 32 34 33 32 24 23 21 23 18 358 5 343 317 316 78 109 161 128 100 98 104 109 88 74 66 84 89 104 109 111 119 128 127 126 125
62 55 50 45 39 41 37 34 35 40 40 39 38 40 47 63 61 44 39 24 11 8 20 94 109 68 56 58 87 122 121 102 74 83 87 93 103 95 89 96 100 109 112
66 60 54 51 49 44 34 41 45 45 46 46 47 47 56 62 70 66 63 56 44 28 15 71 83 78 58 30 34 83 112 118 88 69 83 83 108 93 93 98 107 110 110
68 66 63 62 58 39 34 42 47 51 52 48 47 43 46 54 59 66 64 59 51 49 55 85 82 66 55 33 40 58 63 68 101 176 112 91 88 85 95 107 120 122 121
70 70 68 66 62 44 35 37 42 59 59 55 52 50 52 42 41 56 73 67 58 49 57 72 80 67 59 44 43 76 117 110 89 53 48 86 98 98 103 109 134 137 133
79 78 74 69 63 46 33 33 46 71 71 64 58 51 50 46 39 53 73 76 72 65 67 75 79 76 66 55 46 51 45 72 77 64 24 48 116 130 132 130 143 155 157
86 82 74 67 61 50 35 31 37 74 79 74 65 55 47 45 43 49 64 69 68 62 69 74 68 67 66 57 53 47 33 32 45 62 19 19 102 95 32 133 154 164 170
Height
1569 1570 1570 1572 1573 1574 1575 1576 1577 1578 1579 1580 1581 1582 1582 1582 1582 1582 1582 1583 1584 1584 1585 1586 1587 1588 1588 1589 1590 1591 1592 1593 1594 1595 1596 1597 1598 1599 1600 1601 1601 1602 1603
1568 1570 1570 1571 1573 1574 1575 1576 1577 1578 1579 1580 1581 1581 1582 1583 1582 1582 1582 1583 1584 1584 1585 1586 1587 1587 1588 1589 1590 1591 1592 1593 1594 1595 1596 1597 1598 1599 1599 1600 1601 1602 1603
1568 1569 1570 1571 1572 1574 1574 1575 1576 1577 1578 1579 1580 1581 1582 1582 1582 1582 1582 1582 1583 1584 1585 1585 1586 1587 1588 1588 1589 1590 1591 1592 1593 1594 1595 1596 1597 1598 1599 1600 1600 1601 1602
1567 1568 1569 1570 1571 1573 1574 1575 1576 1577 1578 1579 1579 1580 1580 1581 1581 1582 1582 1582 1582 1583 1584 1585 1585 1586 1587 1587 1588 1589 1590 1591 1592 1593 1594 1595 1596 1597 1598 1599 1599 1600 1601
1566 1567 1568 1569 1570 1572 1573 1574 1575 1576 1576 1577 1578 1578 1579 1580 1580 1581 1581 1582 1582 1582 1582 1583 1584 1585 1585 1586 1587 1588 1589 1590 1591 1591 1592 1593 1594 1595 1596 1597 1598 1599 1600
1564 1565 1567 1568 1569 1571 1572 1573 1574 1574 1575 1576 1577 1577 1577 1578 1578 1579 1580 1580 1581 1581 1581 1581 1582 1583 1584 1584 1585 1586 1587 1588 1588 1589 1590 1591 1592 1593 1594 1595 1596 1597 1598
1562 1563 1565 1567 1568 1569 1570 1571 1572 1573 1574 1575 1576 1576 1576 1576 1576 1576 1577 1578 1579 1580 1580 1580 1580 1581 1582 1583 1583 1584 1585 1585 1586 1587 1588 1589 1590 1591 1592 1593 1594 1595 1595
1560 1562 1563 1564 1566 1567 1568 1569 1570 1571 1572 1573 1574 1574 1574 1575 1574 1575 1575 1576 1577 1578 1578 1578 1578 1579 1579 1580 1581 1581 1582 1583 1584 1585 1586 1586 1587 1588 1589 1590 1591 1592 1593
1558 1559 1561 1562 1564 1565 1566 1567 1568 1569 1570 1571 1572 1572 1572 1572 1572 1572 1573 1574 1574 1575 1576 1576 1576 1576 1577 1577 1577 1578 1579 1580 1581 1582 1583 1583 1584 1585 1586 1587 1588 1589 1589
1556 1557 1558 1560 1561 1562 1563 1564 1565 1566 1567 1568 1569 1569 1570 1570 1571 1570 1571 1571 1571 1572 1572 1573 1573 1573 1573 1574 1574 1575 1576 1577 1578 1578 1579 1580 1581 1582 1582 1583 1584 1585 1586
1553 1554 1556 1557 1558 1559 1560 1561 1562 1563 1564 1565 1566 1567 1567 1568 1568 1569 1568 1568 1569 1569 1569 1569 1570 1570 1570 1571 1571 1572 1572 1573 1574 1575 1576 1576 1577 1578 1579 1579 1580 1581 1581
1551 1551 1553 1554 1555 1556 1557 1558 1558 1559 1560 1561 1562 1563 1564 1565 1565 1565 1565 1565 1565 1565 1566 1566 1566 1567 1567 1567 1568 1568 1569 1570 1570 1571 1572 1573 1573 1574 1575 1575 1576 1577 1577
1548 1549 1550 1550 1551 1552 1553 1554 1555 1556 1557 1558 1558 1559 1560 1561 1561 1562 1562 1562 1562 1562 1562 1562 1563 1563 1563 1564 1564 1564 1565 1566 1566 1567 1568 1569 1570 1570 1571 1571 1572 1572 1573
1546 1546 1547 1547 1548 1549 1549 1550 1551 1552 1553 1554 1554 1555 1556 1557 1558 1558 1559 1559 1559 1559 1559 1559 1559 1558 1559 1560 1560 1560 1561 1561 1562 1563 1564 1565 1565 1566 1567 1567 1568 1568 1569
1544 1544 1544 1544 1544 1545 1546 1546 1547 1548 1549 1549 1550 1551 1552 1552 1553 1554 1554 1555 1556 1555 1555 1556 1556 1556 1556 1556 1556 1556 1557 1558 1559 1559 1560 1561 1561 1562 1562 1563 1563 1563 1564
1542 1542 1542 1542 1542 1542 1542 1543 1543 1544 1545 1546 1546 1547 1547 1548 1549 1549 1550 1551 1551 1552 1551 1552 1553 1553 1552 1552 1553 1553 1553 1554 1555 1555 1555 1556 1556 1557 1557 1558 1558 1559 1559
1540 1540 1540 1540 1540 1540 1540 1540 1541 1541 1541 1542 1543 1543 1543 1543 1544 1545 1545 1546 1546 1548 1548 1548 1549 1549 1549 1549 1550 1550 1550 1550 1551 1551 1552 1552 1552 1552 1553 1554 1554 1554 1555
1538 1538 1538 1538 1538 1538 1538 1538 1538 1538 1538 1539 1539 1539 1539 1540 1540 1541 1541 1541 1542 1543 1544 1544 1545 1545 1546 1546 1547 1547 1547 1548 1548 1548 1549 1549 1549 1549 1549 1550 1550 1551 1551
1538 1538 1537 1537 1536 1536 1536 1536 1536 1536 1536 1536 1536 1536 1536 1536 1537 1537 1537 1538 1538 1539 1540 1541 1541 1542 1543 1543 1544 1544 1545 1545 1545 1545 1545 1545 1545 1545 1546 1546 1547 1547 1548
1537 1537 1537 1536 1536 1535 1535 1535 1535 1535 1534 1534 1534 1534 1534 1534 1534 1534 1534 1535 1535 1536 1537 1538 1539 1540 1540 1541 1541 1542 1542 1542 1542 1542 1542 1542 1543 1543 1543 1544 1544 1544 1545
1537 1537 1537 1536 1535 1535 1534 1534 1534 1533 1533 1532 1532 1532 1532 1532 1532 1532 1532 1533 1533 1534 1534 1535 1536 1537 1537 1538 1538 1539 1539 1540 1540 1540 1540 1540 1540 1540 1540 1541 1541 1541 1542
1538 1537 1537 1536 1535 1535 1535 1534 1533 1533 1532 1532 1531 1531 1531 1531 1531 1531 1531 1531 1531 1531 1531 1532 1533 1534 1535 1536 1536 1537 1537 1537 1538 1539 1539 1539 1539 1538 1538 1539 1539 1539 1539
1538 1538 1537 1537 1536 1535 1535 1534 1533 1532 1532 1531 1531 1531 1531 1531 1531 1531 1531 1530 1530 1529 1530 1531 1531 1532 1533 1534 1535 1535 1535 1536 1536 1537 1537 1537 1538 1538 1538 1538 1538 1538 1537
1539 1539 1538 1538 1537 1536 1536 1535 1534 1533 1532 1532 1532 1531 1532 1532 1532 1532 1531 1530 1530 1529 1529 1530 1531 1532 1533 1534 1534 1534 1535 1535 1535 1536 1537 1537 1537 1537 1537 1537 1537 1536 1536
1540 1540 1540 1539 1538 1538 1537 1536 1535 1534 1534 1533 1533 1533 1533 1533 1533 1533 1532 1532 1531 1531 1531 1532 1533 1534 1534 1534 1535 1535 1535 1535 1535 1535 1536 1536 1536 1536 1536 1536 1536 1536 1535
1541 1541 1541 1541 1540 1539 1539 1538 1537 1536 1536 1535 1535 1535 1535 1535 1535 1535 1534 1534 1534 1534 1534 1534 1535 1535 1535 1535 1535 1535 1535 1535 1535 1536 1536 1536 1536 1536 1536 1536 1536 1536 1535